• In Portugal
  • List of Countries
  • For 7 days
  • Water Temperature
  • Satellite Maps
  • Weather Map
  • Weather Widgets
  • user-avatar
    Login

    Hourly Weather Rawson

    Today, 21 July, Saturday

    Time Temperature Precipitation Wind Pressure Humidity
    00:00 +4°C° 0 mm 4 mps 757 mmHg 60%
    01:00 +4°C° 0 mm 4 mps 757 mmHg 58%
    02:00 +4°C° 0 mm 4 mps 756 mmHg 56%
    03:00 +4°C° 0 mm 4 mps 756 mmHg 54%
    04:00 +3°C° 0 mm 5 mps 755 mmHg 52%
    05:00 +3°C° 0 mm 5 mps 755 mmHg 50%
    06:00 +3°C° 0 mm 5 mps 754 mmHg 50%
    07:00 +5°C° 0 mm 5 mps 754 mmHg 51%
    08:00 +5°C° 0 mm 5 mps 754 mmHg 52%
    09:00 +6°C° 0 mm 5 mps 754 mmHg 49%
    10:00 +8°C° 0 mm 5 mps 753 mmHg 47%
    11:00 +9°C° 0 mm 5 mps 753 mmHg 44%
    12:00 +10°C° 0 mm 5 mps 753 mmHg 43%
    13:00 +12°C° 0 mm 5 mps 752 mmHg 42%
    14:00 +12°C° 0 mm 5 mps 752 mmHg 40%
    15:00 +12°C° 0 mm 5 mps 752 mmHg 45%
    16:00 +11°C° 0 mm 4 mps 752 mmHg 50%
    17:00 +10°C° 0 mm 4 mps 752 mmHg 54%
    18:00 +8°C° 0 mm 4 mps 752 mmHg 58%
    19:00 +8°C° 0 mm 4 mps 752 mmHg 61%
    20:00 +7°C° 0 mm 4 mps 752 mmHg 64%
    21:00 +7°C° 0 mm 4 mps 752 mmHg 64%
    22:00 +7°C° 0 mm 5 mps 752 mmHg 64%
    23:00 +5°C° 0 mm 6 mps 753 mmHg 64%

    Tomorrow, 22 July, Sunday

    Time Temperature Precipitation Wind Pressure Humidity
    00:00 +5°C° 0.1 mm 7 mps 753 mmHg 59%
    01:00 +5°C° 0.1 mm 8 mps 754 mmHg 54%
    02:00 +3°C° 0.1 mm 9 mps 754 mmHg 48%
    03:00 +2°C° 0 mm 9 mps 755 mmHg 49%
    04:00 +2°C° 0 mm 9 mps 755 mmHg 50%
    05:00 +1°C° 0 mm 9 mps 756 mmHg 51%
    06:00 +1°C° 0 mm 9 mps 757 mmHg 53%
    07:00 0°C° 0 mm 9 mps 758 mmHg 55%
    08:00 0°C° 0 mm 9 mps 758 mmHg 56%
    09:00 +1°C° 0 mm 10 mps 759 mmHg 53%
    10:00 +2°C° 0 mm 10 mps 760 mmHg 50%
    11:00 +2°C° 0 mm 11 mps 761 mmHg 47%
    12:00 +3°C° 0 mm 11 mps 761 mmHg 44%
    13:00 +3°C° 0 mm 11 mps 762 mmHg 40%
    14:00 +5°C° 0 mm 10 mps 762 mmHg 37%
    15:00 +5°C° 0 mm 9 mps 762 mmHg 37%
    16:00 +4°C° 0 mm 8 mps 763 mmHg 37%
    17:00 +4°C° 0 mm 7 mps 763 mmHg 37%
    18:00 +3°C° 0 mm 7 mps 764 mmHg 40%
    19:00 +3°C° 0 mm 6 mps 765 mmHg 42%
    20:00 +2°C° 0 mm 6 mps 765 mmHg 44%
    21:00 +3°C° 0 mm 7 mps 765 mmHg 48%
    22:00 +3°C° 0 mm 7 mps 766 mmHg 53%
    23:00 +2°C° 0 mm 8 mps 766 mmHg 57%

    Day after tomorrow, 23 July, Monday

    Time Temperature Precipitation Wind Pressure Humidity
    00:00 +2°C° 0 mm 8 mps 766 mmHg 57%
    01:00 +2°C° 0 mm 9 mps 766 mmHg 57%
    02:00 +2°C° 0 mm 9 mps 766 mmHg 58%
    03:00 +2°C° 0 mm 9 mps 766 mmHg 58%
    04:00 +2°C° 0 mm 9 mps 766 mmHg 57%
    05:00 +2°C° 0 mm 9 mps 767 mmHg 57%
    06:00 +1°C° 0 mm 9 mps 767 mmHg 57%
    07:00 +1°C° 0 mm 9 mps 767 mmHg 57%
    08:00 +1°C° 0 mm 9 mps 768 mmHg 57%
    09:00 +3°C° 0 mm 9 mps 768 mmHg 52%
    10:00 +6°C° 0 mm 9 mps 768 mmHg 47%
    11:00 +8°C° 0 mm 9 mps 768 mmHg 42%
    12:00 +10°C° 0 mm 9 mps 768 mmHg 40%
    13:00 +11°C° 0 mm 8 mps 767 mmHg 37%
    14:00 +12°C° 0 mm 7 mps 767 mmHg 35%
    15:00 +11°C° 0 mm 6 mps 767 mmHg 37%
    16:00 +10°C° 0 mm 5 mps 767 mmHg 40%
    17:00 +10°C° 0 mm 3 mps 767 mmHg 42%
    18:00 +10°C° 0 mm 3 mps 767 mmHg 42%
    19:00 +8°C° 0 mm 4 mps 767 mmHg 42%
    20:00 +8°C° 0 mm 4 mps 767 mmHg 42%
    21:00 +7°C° 0 mm 4 mps 767 mmHg 42%
    22:00 +6°C° 0 mm 5 mps 767 mmHg 42%
    23:00 +5°C° 0 mm 6 mps 767 mmHg 42%

    24 July, Tuesday

    Time Temperature Precipitation Wind Pressure Humidity
    00:00 +4°C° 0 mm 6 mps 767 mmHg 42%
    01:00 +4°C° 0 mm 6 mps 766 mmHg 43%
    02:00 +4°C° 0 mm 7 mps 766 mmHg 43%
    03:00 +3°C° 0 mm 7 mps 766 mmHg 43%
    04:00 +3°C° 0 mm 7 mps 766 mmHg 44%
    05:00 +3°C° 0 mm 7 mps 765 mmHg 44%
    06:00 +3°C° 0 mm 7 mps 765 mmHg 44%
    07:00 +3°C° 0 mm 7 mps 766 mmHg 44%
    08:00 +2°C° 0 mm 7 mps 766 mmHg 44%
    09:00 +4°C° 0 mm 8 mps 766 mmHg 40%
    10:00 +6°C° 0 mm 8 mps 765 mmHg 35%
    11:00 +8°C° 0 mm 9 mps 765 mmHg 31%
    12:00 +11°C° 0 mm 8 mps 765 mmHg 28%
    13:00 +12°C° 0 mm 8 mps 765 mmHg 26%
    14:00 +15°C° 0 mm 7 mps 764 mmHg 23%
    15:00 +14°C° 0 mm 7 mps 764 mmHg 25%
    16:00 +12°C° 0 mm 7 mps 765 mmHg 28%
    17:00 +11°C° 0 mm 7 mps 765 mmHg 30%
    18:00 +10°C° 0 mm 8 mps 765 mmHg 33%
    19:00 +9°C° 0 mm 8 mps 765 mmHg 35%
    20:00 +7°C° 0 mm 9 mps 765 mmHg 38%
    21:00 +6°C° 0 mm 9 mps 765 mmHg 40%
    22:00 +6°C° 0 mm 9 mps 765 mmHg 42%
    23:00 +5°C° 0 mm 10 mps 765 mmHg 45%

    25 July, Wednesday

    Time Temperature Precipitation Wind Pressure Humidity
    00:00 +5°C° 0 mm 9 mps 765 mmHg 46%
    01:00 +5°C° 0 mm 9 mps 765 mmHg 47%
    02:00 +3°C° 0 mm 9 mps 765 mmHg 48%
    03:00 +3°C° 0 mm 9 mps 765 mmHg 49%
    04:00 +3°C° 0 mm 9 mps 765 mmHg 51%
    05:00 +3°C° 0 mm 9 mps 765 mmHg 52%
    06:00 +2°C° 0 mm 9 mps 765 mmHg 53%
    07:00 +2°C° 0 mm 9 mps 765 mmHg 54%
    08:00 +2°C° 0 mm 9 mps 765 mmHg 55%
    09:00 +5°C° 0 mm 9 mps 765 mmHg 50%
    10:00 +6°C° 0 mm 9 mps 765 mmHg 45%
    11:00 +8°C° 0 mm 9 mps 765 mmHg 39%
    12:00 +11°C° 0 mm 9 mps 764 mmHg 36%
    13:00 +12°C° 0 mm 9 mps 764 mmHg 33%
    14:00 +13°C° 0 mm 9 mps 763 mmHg 30%
    15:00 +12°C° 0 mm 9 mps 763 mmHg 33%
    16:00 +11°C° 0 mm 9 mps 763 mmHg 37%
    17:00 +11°C° 0 mm 9 mps 763 mmHg 40%
    18:00 +9°C° 0 mm 10 mps 763 mmHg 45%
    19:00 +8°C° 0 mm 10 mps 763 mmHg 50%
    20:00 +7°C° 0 mm 11 mps 763 mmHg 55%
    21:00 +7°C° 0 mm 11 mps 763 mmHg 57%
    22:00 +7°C° 0 mm 11 mps 763 mmHg 60%
    23:00 +6°C° 0 mm 11 mps 763 mmHg 63%

    26 July, Thursday

    Time Temperature Precipitation Wind Pressure Humidity
    00:00 +6°C° 0 mm 11 mps 763 mmHg 64%
    01:00 +6°C° 0 mm 11 mps 762 mmHg 66%
    02:00 +4°C° 0 mm 11 mps 762 mmHg 67%
    03:00 +5°C° 0 mm 10 mps 762 mmHg 68%
    04:00 +5°C° 0 mm 10 mps 762 mmHg 68%
    05:00 +5°C° 0 mm 10 mps 761 mmHg 69%
    06:00 +3°C° 0 mm 10 mps 761 mmHg 69%
    07:00 +3°C° 0 mm 9 mps 761 mmHg 70%
    08:00 +3°C° 0 mm 9 mps 761 mmHg 70%
    09:00 +5°C° 0 mm 9 mps 761 mmHg 64%
    10:00 +7°C° 0 mm 9 mps 761 mmHg 58%
    11:00 +10°C° 0 mm 9 mps 761 mmHg 52%
    12:00 +10°C° 0 mm 9 mps 760 mmHg 50%
    13:00 +11°C° 0 mm 9 mps 760 mmHg 47%
    14:00 +12°C° 0 mm 8 mps 759 mmHg 45%
    15:00 +12°C° 0 mm 8 mps 759 mmHg 46%
    16:00 +11°C° 0 mm 7 mps 759 mmHg 48%
    17:00 +11°C° 0 mm 6 mps 760 mmHg 49%
    18:00 +10°C° 0 mm 6 mps 760 mmHg 50%
    19:00 +9°C° 0 mm 6 mps 760 mmHg 52%
    20:00 +8°C° 0 mm 5 mps 761 mmHg 53%
    21:00 +7°C° 0 mm 5 mps 761 mmHg 56%
    22:00 +7°C° 0 mm 5 mps 761 mmHg 60%
    23:00 +6°C° 0 mm 5 mps 761 mmHg 63%
    Show more